[[{"header":{"parameterUnit":"m.s-1","parameterCategory":1,"la1":30.2991,"la2":30.254,"lo1":-89.0895,"lo2":-89.0444,"dy":0.0017,"dx":0.0017,"nx":28,"ny":28,"refTime":"2025-06-01T09:00:00:Z","depth":0,"parameterNumber":2,"parameterNumberName":"U-component_of_WINDS"},"data":[0,0,0,0,0,0,0,0,0,0,0,0,0,0,0,0,0,0,0,0,0,0,0,0,0,0,0,0,0,0,0,0,0,0,0,0,0,0,0,0,0,0,0,0,0,0,0,0,0,0,0,0,0,0,0,0,0,0,1.1249,1.1249,0,1.1234,1.1234,1.1234,1.1204,1.1203,1.1203,1.1202,1.1186,1.1186,1.1186,0,0,0,0,0,0,0,0,0,0,0,0,0,1.1248,1.1248,1.1249,1.1249,1.1249,1.1234,1.1234,1.1234,1.1204,1.1203,1.1202,1.1202,1.1186,1.1186,1.1186,0,0,0,0,0,0,0,0,0,0,0,0,0,1.1242,1.1248,1.1249,1.1232,1.123,1.1234,1.1234,1.1234,1.1204,1.1203,1.1202,1.1201,1.1186,1.1186,1.1186,1.1205,0,0,1.1187,1.1187,0,0,0,0,0,0,0,0,1.1243,1.1243,1.1235,1.1233,1.1231,1.122,1.1228,1.1224,1.1204,1.1214,1.1202,1.1201,1.1198,1.1197,1.1196,1.1205,1.1204,1.1187,1.1187,1.1187,1.1187,0,0,0,0,0,0,0,1.1243,1.1243,1.1243,1.1235,1.1233,1.1224,1.1222,1.1227,1.1211,1.1213,1.1211,1.121,1.1197,1.1196,1.1196,1.1204,1.1187,1.1187,1.1187,1.1187,1.1222,1.1223,0,0,0,0,0,0,1.1246,1.1244,1.1244,1.1243,1.1235,1.1225,1.1223,1.1225,1.1211,1.1208,1.121,1.1208,1.1196,1.1195,1.1195,1.1213,1.1187,1.1187,1.1187,1.1221,1.1222,1.1223,0,0,0,0,0,0,1.1247,1.1247,1.1244,1.1243,1.1242,1.1226,1.1228,1.1225,1.1224,1.1209,1.1206,1.1213,1.1195,1.1195,1.1202,1.1212,1.1187,1.1187,1.1221,1.1222,1.1223,1.1252,0,0,0,0,0,0,1.1247,1.1247,1.1255,1.1243,1.1242,1.1253,1.1229,1.1225,1.1224,1.1222,1.121,1.1208,1.1195,1.1202,1.1202,1.1212,1.1188,1.1219,1.1221,1.1223,1.125,1.1255,1.1258,0,0,0,0,0,1.1247,1.1265,1.1256,1.1256,1.1252,1.1254,1.1253,1.1238,1.1226,1.1233,1.1222,1.1208,1.1212,1.1203,1.1203,1.1213,1.1219,1.1221,1.1222,1.1249,1.1254,1.1258,0,0,0,0,0,0,1.1279,1.1263,1.1253,1.1268,1.1262,1.1249,1.1257,1.1244,1.1242,1.1239,1.122,1.1218,1.1227,1.1221,1.1212,1.1229,1.1213,1.1215,1.1233,1.1237,1.1241,1.1242,1.1188,0,0,0,0,0,1.1288,1.1292,1.1277,1.1292,1.1289,1.1274,1.1274,1.1263,1.1256,1.1254,1.1244,1.1238,1.1237,1.1237,1.1236,1.125,1.1245,1.1256,1.126,1.1263,1.1265,1.1268,1.1272,1.1229,1.1229,1.1229,0,0,1.1307,1.1298,1.1302,1.1298,1.1292,1.1294,1.1272,1.1277,1.1278,1.1254,1.126,1.1252,1.1244,1.1253,1.1257,1.1249,1.1276,1.1266,1.1268,1.1268,1.1271,1.1275,1.1278,1.1231,1.123,1.123,0,0,1.1341,1.1336,1.1346,1.134,1.1331,1.132,1.1323,1.131,1.1304,1.131,1.1291,1.1291,1.1292,1.1285,1.1282,1.131,1.1295,1.131,1.133,1.1333,1.1336,1.1339,1.1347,1.135,1.1312,1.1312,1.1312,0,1.1365,1.1369,1.1353,1.1357,1.1355,1.1333,1.1341,1.1336,1.1328,1.1326,1.1316,1.1313,1.1306,1.1312,1.1319,1.1318,1.1318,1.1311,1.1337,1.134,1.1342,1.1349,1.1352,1.1314,1.1313,1.1313,1.1313,0,1.1397,1.14,1.1408,1.1399,1.1398,1.1405,1.1388,1.1388,1.1376,1.1365,1.1369,1.1359,1.1354,1.1355,1.1344,1.1359,1.1353,1.1341,1.1324,1.1348,1.1354,1.1357,1.1316,1.1315,1.1315,1.1314,0,0,1.1453,1.1432,1.1436,1.143,1.1417,1.1418,1.1423,1.1417,1.1416,1.1411,1.1412,1.1411,1.1398,1.1395,1.1382,1.1386,1.1405,1.1372,1.1372,1.1377,1.1417,1.1425,1.1428,1.1395,1.1396,1.1396,1.1417,0,1.1482,1.1489,1.1473,1.1483,1.1483,1.1461,1.1464,1.1456,1.1445,1.1443,1.1432,1.143,1.1415,1.1412,1.1414,1.1402,1.1412,1.1401,1.1395,1.1395,1.1396,1.1432,1.1441,1.1461,1.1419,1.1419,1.142,0,1.1518,1.1513,1.1523,1.1506,1.1506,1.1509,1.1501,1.15,1.1489,1.1481,1.1475,1.146,1.1461,1.1445,1.1445,1.1437,1.1434,1.1427,1.1427,1.1425,1.1408,1.1428,1.1467,1.1469,1.1424,1.1423,1.1423,0,1.1554,1.155,1.1554,1.155,1.1532,1.1534,1.1526,1.1514,1.1511,1.1504,1.1501,1.1494,1.149,1.1484,1.1467,1.1457,1.1467,1.1451,1.1459,1.1459,1.1461,1.1461,1.1498,1.1462,1.1462,1.1462,1.1462,0,1.1588,1.1594,1.1569,1.1572,1.1577,1.1557,1.1563,1.1553,1.1542,1.1541,1.1522,1.1521,1.1499,1.1495,1.1482,1.1482,1.1481,1.1473,1.1469,1.1473,1.1474,1.147,1.1468,1.1463,1.1463,1.1463,1.1462,0,1.1629,1.1613,1.1615,1.1597,1.1592,1.1597,1.158,1.1581,1.1569,1.1567,1.1566,1.1546,1.154,1.1523,1.1513,1.1503,1.1507,1.1501,1.151,1.1508,1.1516,1.1514,1.155,1.1552,1.1517,1.1517,1.1518,0,1.1651,1.1655,1.1636,1.1634,1.1627,1.1624,1.1619,1.16,1.1596,1.1582,1.1584,1.1576,1.1569,1.156,1.1544,1.1536,1.1528,1.1541,1.1527,1.153,1.1526,1.1525,1.1524,1.1544,1.1544,1.1545,1.1545,0,1.169,1.1681,1.1676,1.1667,1.1663,1.1655,1.1646,1.1645,1.1623,1.1619,1.1613,1.1607,1.1596,1.1587,1.1576,1.1567,1.1551,1.155,1.1551,1.1555,1.1559,1.1555,1.1517,1.1549,1.1549,1.1548,1.1548,1.1548,1.172,1.1721,1.1708,1.1702,1.1693,1.1684,1.1683,1.1669,1.1664,1.1653,1.1641,1.1635,1.1621,1.1604,1.1596,1.159,1.1582,1.1584,1.1584,1.1585,1.1586,1.1561,1.1588,1.1588,1.1588,1.1588,1.1588,0,1.1756,1.1746,1.1741,1.1728,1.1723,1.1709,1.1698,1.1694,1.1689,1.1677,1.167,1.1661,1.1652,1.1635,1.1624,1.1623,1.1615,1.162,1.1619,1.1617,1.1595,1.1594,1.1626,1.1626,1.1626,1.1626,1.1626,1.1626,1.1774,1.1774,1.1764,1.1758,1.1747,1.1741,1.1735,1.1727,1.1717,1.1707,1.17,1.1689,1.1674,1.1662,1.1653,1.1648,1.1644,1.1651,1.1643,1.1623,1.1619,1.1615,1.1614,1.1651,1.1651,1.1666,1.1666,1.1666]},{"header":{"parameterUnit":"m.s-1","parameterCategory":1,"la1":30.2991,"la2":30.254,"lo1":-89.0895,"lo2":-89.0444,"dy":0.0017,"dx":0.0017,"nx":28,"ny":28,"refTime":"2025-06-01T09:00:00:Z","depth":0,"parameterNumber":3,"parameterNumberName":"V-component_of_WINDS"},"data":[0,0,0,0,0,0,0,0,0,0,0,0,0,0,0,0,0,0,0,0,0,0,0,0,0,0,0,0,0,0,0,0,0,0,0,0,0,0,0,0,0,0,0,0,0,0,0,0,0,0,0,0,0,0,0,0,0,0,3.9841,3.9841,0,3.9872,3.9872,3.9873,3.9787,3.9784,3.9781,3.9779,3.9809,3.9812,3.9815,0,0,0,0,0,0,0,0,0,0,0,0,0,3.9704,3.9707,3.9841,3.9841,3.9842,3.9872,3.9872,3.9873,3.9787,3.9784,3.9781,3.9778,3.9808,3.9812,3.9816,0,0,0,0,0,0,0,0,0,0,0,0,0,3.9752,3.9708,3.9841,3.9803,3.9799,3.9872,3.9872,3.9873,3.9788,3.9784,3.978,3.9776,3.9807,3.9811,3.9816,3.9926,0,0,3.9831,3.9833,0,0,0,0,0,0,0,0,3.9749,3.9757,3.9808,3.9805,3.9802,3.9821,3.9835,3.9891,3.9789,3.9792,3.9779,3.9774,3.9816,3.982,3.9835,3.9928,3.9929,3.9832,3.9835,3.9837,3.9838,0,0,0,0,0,0,0,3.9746,3.9755,3.9853,3.9809,3.9805,3.9783,3.9785,3.9845,3.9826,3.9792,3.9785,3.979,3.9814,3.983,3.9835,3.993,3.9832,3.9836,3.9839,3.9841,4.011,4.0114,0,0,0,0,0,0,3.9748,3.9753,3.9852,3.9854,3.9765,3.9788,3.9791,3.9819,3.9825,3.9822,3.9794,3.9786,3.9824,3.9829,3.9835,3.9961,3.9837,3.9841,3.9844,4.0106,4.0111,4.0116,0,0,0,0,0,0,3.9745,3.9758,3.9851,3.9802,3.9812,3.9795,3.9827,3.9822,3.9838,3.9827,3.9823,3.9814,3.9821,3.9828,3.9904,3.9961,3.9844,3.9848,4.0101,4.0108,4.0114,4.0217,0,0,0,0,0,0,3.9742,3.9757,3.98,3.9803,3.9815,3.992,3.9831,3.9825,3.9847,3.9837,3.9845,3.9842,3.9818,3.9897,3.9908,3.9966,3.9852,4.0096,4.0104,4.0112,4.0208,4.0226,4.0241,0,0,0,0,0,3.9737,3.9828,3.9803,3.9815,3.9868,3.9923,3.993,3.9901,3.9852,3.9894,3.9886,3.9842,3.9954,3.9905,3.9918,3.9978,4.0092,4.0102,4.0111,4.0201,4.0222,4.0241,0,0,0,0,0,0,3.9832,3.9828,3.98,3.9895,3.991,3.9909,3.9961,3.9925,3.9954,3.9944,3.9906,3.9909,3.999,3.9992,3.9937,4.0082,4.0014,4.0027,4.0078,4.0099,4.0115,4.0111,3.9856,0,0,0,0,0,3.9865,3.9911,3.9904,3.9989,3.9998,3.9978,4.0001,3.9977,3.9992,3.9997,3.9995,4.001,4.0048,4.0074,4.0109,4.0209,4.0207,4.0256,4.0272,4.0286,4.0296,4.0345,4.0366,4.0147,4.0147,4.0147,0,0,3.9931,3.9935,3.9966,4.0008,4.0017,4.0063,3.9984,4.0038,4.0072,4.0005,4.0075,4.0075,4.0088,4.0175,4.0213,4.0179,4.0356,4.0298,4.0309,4.0312,4.0357,4.0378,4.0396,4.0153,4.0152,4.0151,0,0,4.0076,4.0085,4.0154,4.0164,4.0179,4.0165,4.0181,4.0185,4.0182,4.0252,4.0202,4.0241,4.0308,4.0319,4.0333,4.0479,4.0439,4.0492,4.0577,4.0626,4.0643,4.0658,4.0707,4.0725,4.0503,4.0503,4.0503,0,4.0157,4.0226,4.0194,4.025,4.0269,4.0211,4.0279,4.0291,4.0316,4.0329,4.0291,4.0371,4.0377,4.0464,4.0499,4.0514,4.053,4.049,4.0643,4.0658,4.0671,4.0717,4.0736,4.0509,4.0509,4.0508,4.0507,0,4.0323,4.0371,4.0426,4.045,4.0475,4.0538,4.0513,4.0542,4.0516,4.0505,4.0575,4.058,4.0613,4.0632,4.0608,4.0715,4.0693,4.065,4.058,4.0699,4.0741,4.0759,4.0518,4.0516,4.0514,4.0512,0,0,4.0528,4.0533,4.0553,4.0562,4.0572,4.0609,4.0667,4.0699,4.0723,4.0742,4.0789,4.0846,4.0805,4.0821,4.0797,4.0841,4.0952,4.0791,4.0791,4.0818,4.1066,4.1097,4.1118,4.0926,4.0929,4.0932,4.1064,0,4.0668,4.0768,4.074,4.084,4.0882,4.0827,4.0877,4.0889,4.088,4.0914,4.0905,4.0944,4.089,4.0898,4.0939,4.093,4.1001,4.092,4.0966,4.0968,4.0961,4.1141,4.1173,4.1298,4.1081,4.1084,4.1086,0,4.0844,4.0869,4.0973,4.0973,4.099,4.1036,4.1061,4.1095,4.1106,4.1096,4.1114,4.108,4.1136,4.1068,4.1142,4.1088,4.1105,4.1104,4.1108,4.1108,4.1032,4.1143,4.1338,4.1355,4.1112,4.111,4.1108,0,4.0979,4.1038,4.1107,4.1117,4.112,4.1153,4.1156,4.1163,4.1183,4.1205,4.1217,4.1246,4.1261,4.1283,4.1258,4.1211,4.1335,4.1266,4.1327,4.1327,4.1353,4.1351,4.155,4.137,4.137,4.1369,4.1369,0,4.1136,4.1201,4.1167,4.1209,4.1279,4.1246,4.1316,4.1312,4.1318,4.1357,4.1312,4.135,4.1315,4.1349,4.133,4.1392,4.1401,4.1393,4.1386,4.1395,4.1396,4.1404,4.1394,4.1374,4.1373,4.1372,4.1371,0,4.1298,4.1278,4.1349,4.1345,4.1346,4.1397,4.1394,4.1432,4.142,4.1469,4.1479,4.146,4.1498,4.1475,4.1514,4.15,4.1581,4.1564,4.1577,4.1571,4.1633,4.1626,4.1841,4.1866,4.1673,4.1675,4.1676,0,4.1398,4.1446,4.1448,4.147,4.1476,4.1514,4.1533,4.1502,4.1524,4.1538,4.1574,4.1607,4.1632,4.1694,4.1683,4.1711,4.1693,4.1766,4.1697,4.1703,4.169,4.1686,4.169,4.178,4.1782,4.1784,4.1785,0,4.1577,4.1564,4.1594,4.1621,4.1645,4.1664,4.168,4.1701,4.1669,4.1696,4.1733,4.1753,4.1791,4.1824,4.1847,4.1849,4.1811,4.1808,4.1822,4.1831,4.1835,4.183,4.1612,4.1802,4.18,4.1799,4.1798,4.1798,4.1709,4.1748,4.1754,4.1788,4.1796,4.1811,4.1845,4.1837,4.1867,4.1895,4.1875,4.1919,4.1925,4.1953,4.1959,4.1992,4.1962,4.1985,4.199,4.1995,4.2002,4.1832,4.1997,4.1996,4.1996,4.1995,4.1995,0,4.1882,4.1883,4.1915,4.1937,4.1963,4.1926,4.1941,4.1965,4.2003,4.2013,4.2038,4.2079,4.211,4.2102,4.2129,4.2157,4.214,4.2165,4.2161,4.2161,4.2029,4.2012,4.2178,4.2178,4.2177,4.2177,4.2177,4.2177,4.1975,4.2038,4.2025,4.2091,4.2091,4.2132,4.2143,4.2156,4.2163,4.2211,4.2237,4.2231,4.2232,4.2259,4.2285,4.2282,4.2293,4.2323,4.2313,4.2189,4.2171,4.2154,4.2137,4.2327,4.2327,4.2442,4.2443,4.2444]}]]